When you browse on this site, cookies collect data to enhance your experience and personalize the content and advertising you see.
Visit our Privacy Policy to learn more. By continuing to use the site, you agree to this use of cookies and data.
  • In Lithuania
  • List of Countries
  • For 7 days
  • Water Temperature
  • Weather Map
  • Weather Widgets
  • user-avatar
    Login

    Hourly Weather Sretensk

    Today, 30 May, Saturday

    Time Temperature Precipitation Wind Pressure Humidity
    00:00 +10°C° 0 mm 2 mps 705 mmHg 52%
    01:00 +10°C° 0 mm 2 mps 704 mmHg 56%
    02:00 +9°C° 0 mm 3 mps 704 mmHg 59%
    03:00 +9°C° 0.1 mm 3 mps 703 mmHg 63%
    04:00 +8°C° 0.1 mm 4 mps 703 mmHg 67%
    05:00 +7°C° 0.1 mm 4 mps 703 mmHg 72%
    06:00 +7°C° 1 mm 4 mps 702 mmHg 79%
    07:00 +7°C° 1 mm 4 mps 702 mmHg 86%
    08:00 +7°C° 0 mm 2 mps 703 mmHg 94%
    09:00 +7°C° 0.3 mm 2 mps 703 mmHg 94%
    10:00 +7°C° 0.3 mm 3 mps 703 mmHg 93%
    11:00 +7°C° 0.3 mm 3 mps 703 mmHg 92%
    12:00 +7°C° 0.2 mm 3 mps 703 mmHg 91%
    13:00 +7°C° 0.2 mm 3 mps 703 mmHg 91%
    14:00 +7°C° 0.2 mm 3 mps 703 mmHg 90%
    15:00 +5°C° 0 mm 3 mps 703 mmHg 90%
    16:00 +6°C° 0 mm 2 mps 704 mmHg 90%
    17:00 +6°C° 0 mm 2 mps 704 mmHg 89%
    18:00 +6°C° 0.1 mm 2 mps 704 mmHg 91%
    19:00 +7°C° 0.1 mm 1 mps 704 mmHg 92%
    20:00 +6°C° 0.1 mm 1 mps 704 mmHg 93%
    21:00 +6°C° 0 mm 1 mps 704 mmHg 93%
    22:00 +5°C° 0 mm 0 mps 705 mmHg 94%
    23:00 +5°C° 0 mm 0 mps 705 mmHg 94%

    Tomorrow, 31 May, Sunday

    Time Temperature Precipitation Wind Pressure Humidity
    00:00 +5°C° 0 mm 0 mps 705 mmHg 94%
    01:00 +5°C° 0 mm 0 mps 705 mmHg 94%
    02:00 +5°C° 0 mm 0 mps 704 mmHg 95%
    03:00 +5°C° 0.1 mm 0 mps 705 mmHg 95%
    04:00 +6°C° 0.1 mm 1 mps 705 mmHg 95%
    05:00 +6°C° 0.1 mm 1 mps 705 mmHg 95%
    06:00 +7°C° 0.1 mm 1 mps 706 mmHg 92%
    07:00 +7°C° 0.1 mm 1 mps 706 mmHg 90%
    08:00 +6°C° 0.1 mm 2 mps 706 mmHg 87%
    09:00 +7°C° 0.1 mm 2 mps 706 mmHg 82%
    10:00 +9°C° 0.1 mm 1 mps 707 mmHg 76%
    11:00 +10°C° 0.1 mm 1 mps 707 mmHg 71%
    12:00 +11°C° 0 mm 1 mps 707 mmHg 62%
    13:00 +13°C° 0 mm 2 mps 707 mmHg 54%
    14:00 +14°C° 0 mm 2 mps 706 mmHg 45%
    15:00 +15°C° 0 mm 1 mps 707 mmHg 42%
    16:00 +16°C° 0 mm 1 mps 707 mmHg 39%
    17:00 +18°C° 0 mm 1 mps 707 mmHg 37%
    18:00 +14°C° 0 mm 1 mps 707 mmHg 44%
    19:00 +12°C° 0 mm 1 mps 707 mmHg 51%
    20:00 +10°C° 0 mm 1 mps 706 mmHg 57%
    21:00 +9°C° 0 mm 1 mps 707 mmHg 61%
    22:00 +8°C° 0 mm 1 mps 707 mmHg 65%
    23:00 +6°C° 0 mm 0 mps 707 mmHg 69%

    Day after tomorrow, 1 June, Monday

    Time Temperature Precipitation Wind Pressure Humidity
    00:00 +5°C° 0 mm 0 mps 707 mmHg 71%
    01:00 +5°C° 0 mm 0 mps 707 mmHg 72%
    02:00 +4°C° 0 mm 0 mps 707 mmHg 74%
    03:00 +5°C° 0 mm 0 mps 707 mmHg 73%
    04:00 +5°C° 0 mm 0 mps 707 mmHg 72%
    05:00 +6°C° 0 mm 1 mps 707 mmHg 71%
    06:00 +9°C° 0 mm 1 mps 707 mmHg 61%
    07:00 +12°C° 0 mm 1 mps 707 mmHg 51%
    08:00 +16°C° 0 mm 1 mps 707 mmHg 41%
    09:00 +18°C° 0 mm 1 mps 706 mmHg 38%
    10:00 +20°C° 0 mm 1 mps 706 mmHg 35%
    11:00 +22°C° 0 mm 1 mps 706 mmHg 32%
    12:00 +22°C° 0 mm 1 mps 705 mmHg 32%
    13:00 +22°C° 0 mm 1 mps 705 mmHg 31%
    14:00 +22°C° 0 mm 1 mps 704 mmHg 30%
    15:00 +21°C° 0 mm 1 mps 704 mmHg 31%
    16:00 +21°C° 0 mm 1 mps 703 mmHg 31%
    17:00 +21°C° 0 mm 1 mps 703 mmHg 31%
    18:00 +19°C° 0 mm 1 mps 702 mmHg 37%
    19:00 +16°C° 0 mm 2 mps 702 mmHg 44%
    20:00 +15°C° 0 mm 2 mps 701 mmHg 50%
    21:00 +14°C° 0 mm 2 mps 701 mmHg 52%
    22:00 +13°C° 0 mm 2 mps 701 mmHg 53%
    23:00 +12°C° 0 mm 2 mps 701 mmHg 54%

    2 June, Tuesday

    Time Temperature Precipitation Wind Pressure Humidity
    00:00 +12°C° 0 mm 2 mps 700 mmHg 56%
    01:00 +11°C° 0 mm 1 mps 700 mmHg 59%
    02:00 +11°C° 0 mm 1 mps 699 mmHg 61%
    03:00 +9°C° 0.8 mm 2 mps 699 mmHg 71%
    04:00 +9°C° 0.8 mm 3 mps 698 mmHg 81%
    05:00 +8°C° 0.8 mm 5 mps 698 mmHg 90%
    06:00 +8°C° 1 mm 4 mps 698 mmHg 90%
    07:00 +8°C° 1 mm 4 mps 698 mmHg 89%
    08:00 +10°C° 1 mm 4 mps 697 mmHg 88%
    09:00 +10°C° 0.3 mm 4 mps 697 mmHg 88%
    10:00 +11°C° 0.3 mm 3 mps 697 mmHg 87%
    11:00 +12°C° 0.3 mm 2 mps 697 mmHg 87%
    12:00 +12°C° 1.3 mm 2 mps 697 mmHg 87%
    13:00 +12°C° 1.3 mm 2 mps 697 mmHg 88%
    14:00 +12°C° 1.3 mm 1 mps 697 mmHg 88%
    15:00 +12°C° 1.4 mm 2 mps 696 mmHg 90%
    16:00 +10°C° 1.4 mm 3 mps 696 mmHg 92%
    17:00 +10°C° 1.4 mm 3 mps 696 mmHg 94%
    18:00 +10°C° 1.5 mm 4 mps 696 mmHg 93%
    19:00 +9°C° 1.5 mm 6 mps 696 mmHg 92%
    20:00 +9°C° 1.5 mm 7 mps 695 mmHg 92%
    21:00 +9°C° 1.6 mm 7 mps 695 mmHg 91%
    22:00 +9°C° 1.6 mm 7 mps 695 mmHg 91%
    23:00 +9°C° 1.6 mm 7 mps 695 mmHg 90%

    3 June, Wednesday

    Time Temperature Precipitation Wind Pressure Humidity
    00:00 +9°C° 0.6 mm 6 mps 696 mmHg 90%
    01:00 +8°C° 0.6 mm 6 mps 696 mmHg 89%
    02:00 +8°C° 0.6 mm 5 mps 696 mmHg 88%
    03:00 +8°C° 0.1 mm 5 mps 697 mmHg 87%
    04:00 +8°C° 0.1 mm 4 mps 698 mmHg 86%
    05:00 +8°C° 0.1 mm 3 mps 698 mmHg 85%
    06:00 +10°C° 0 mm 4 mps 699 mmHg 79%
    07:00 +11°C° 0 mm 4 mps 700 mmHg 72%
    08:00 +13°C° 0 mm 5 mps 700 mmHg 65%
    09:00 +15°C° 0 mm 5 mps 701 mmHg 57%
    10:00 +16°C° 0 mm 5 mps 701 mmHg 50%
    11:00 +19°C° 0 mm 6 mps 702 mmHg 42%
    12:00 +19°C° 0 mm 5 mps 702 mmHg 40%
    13:00 +20°C° 0 mm 4 mps 702 mmHg 38%
    14:00 +21°C° 0 mm 4 mps 702 mmHg 36%
    15:00 +20°C° 0 mm 3 mps 702 mmHg 37%
    16:00 +20°C° 0 mm 3 mps 702 mmHg 39%
    17:00 +20°C° 0 mm 3 mps 702 mmHg 41%
    18:00 +18°C° 0 mm 2 mps 703 mmHg 47%
    19:00 +16°C° 0 mm 2 mps 703 mmHg 53%
    20:00 +15°C° 0 mm 1 mps 703 mmHg 59%
    21:00 +14°C° 0 mm 1 mps 703 mmHg 61%
    22:00 +12°C° 0 mm 1 mps 703 mmHg 64%
    23:00 +10°C° 0 mm 0 mps 703 mmHg 66%

    4 June, Thursday

    Time Temperature Precipitation Wind Pressure Humidity
    00:00 +10°C° 0 mm 0 mps 703 mmHg 67%
    01:00 +10°C° 0 mm 0 mps 703 mmHg 67%
    02:00 +9°C° 0 mm 0 mps 703 mmHg 68%
    03:00 +10°C° 0 mm 0 mps 704 mmHg 67%
    04:00 +10°C° 0 mm 0 mps 704 mmHg 67%
    05:00 +10°C° 0 mm 0 mps 704 mmHg 67%
    06:00 +12°C° 0 mm 0 mps 704 mmHg 61%
    07:00 +14°C° 0 mm 0 mps 705 mmHg 55%
    08:00 +16°C° 0 mm 0 mps 705 mmHg 49%
    09:00 +20°C° 0 mm 1 mps 705 mmHg 45%
    10:00 +21°C° 0 mm 1 mps 705 mmHg 40%
    11:00 +22°C° 0 mm 1 mps 705 mmHg 35%
    12:00 +23°C° 0 mm 1 mps 705 mmHg 34%
    13:00 +23°C° 0 mm 1 mps 705 mmHg 32%
    14:00 +23°C° 0 mm 1 mps 705 mmHg 31%
    15:00 +23°C° 0 mm 1 mps 705 mmHg 32%
    16:00 +23°C° 0 mm 1 mps 705 mmHg 33%
    17:00 +23°C° 0 mm 1 mps 705 mmHg 33%
    18:00 +19°C° 0 mm 0 mps 705 mmHg 40%
    19:00 +17°C° 0 mm 0 mps 705 mmHg 47%
    20:00 +15°C° 0 mm 0 mps 705 mmHg 53%
    21:00 +14°C° 0 mm 0 mps 705 mmHg 56%
    22:00 +13°C° 0 mm 0 mps 705 mmHg 58%
    23:00 +12°C° 0 mm 0 mps 706 mmHg 60%
    Show more